Change the Weather History Date:

Friday, November 22, 2013

  Actual Average (KMMV) Record (KMMV)
Temperature  
Mean Temperature 40 °F 44 °F  
Max Temperature 53 °F 50 °F 63 °F (1936)
Min Temperature 28 °F 38 °F 21 °F (1900)
Degree Days  
Heating Degree Days 24 21  
Month to date heating degree days 421  
Since 1 July heating degree days 1044  
Cooling Degree Days 0 0  
Month to date cooling degree days 0  
Year to date cooling degree days 215  
Moisture  
Dew Point 21 °F    
Average Humidity 54    
Maximum Humidity 93    
Minimum Humidity 24    
Precipitation  
Precipitation 0.00 in 0.23 in 2.42 in (1909)
Month to date precipitation 4.61  
Year to date precipitation 31.47  
Sea Level Pressure  
Sea Level Pressure 30.45 in    
Wind  
Wind Speed 4 mph (ENE)    
Max Wind Speed 21 mph    
Max Gust Speed 26 mph    
Visibility 10 miles    
Events      
T = Trace of Precipitation, MM = Missing Value Source: NWS Daily Summary

Daily Weather History Graph

Daily Weather History Graph

Search for Another Location

Airport or City:

Trip Planner

Search our weather history database for the weather conditions in past years. The results will help you decide how hot, cold, wet, or windy it might be!

Date:

Astronomy

Nov. 22, 2013 Rise Set
Actual Time 8:23 AM MST 5:38 PM MST
Civil Twilight 7:51 AM MST 6:11 PM MST
Nautical Twilight 7:14 AM MST 6:47 PM MST
Astronomical Twilight 6:39 AM MST 7:22 PM MST
Moon 10:20 PM MST (11/22) 12:07 PM MST (11/22)
Length of Visible Light 10h 20m
Length of Day
9h 14m
Waning Gibbous, 77% of the Moon is Illuminated
Nov 22
Waning Gibbous
Nov 25
Last Quarter
Dec 2
New
Dec 9
First Quarter
Dec 17
Full

Hourly Weather History & Observations

Time (MST) Temp. Windchill Dew Point Humidity Pressure Visibility Wind Dir Wind Speed Gust Speed Precip Events Conditions
12:15 AM 30.2 °F - 26.6 °F 86% 30.53 in 10.0 mi Calm Calm - N/A   Clear
12:35 AM 28.4 °F - 26.6 °F 93% 30.54 in 10.0 mi Calm Calm - N/A   Clear
12:55 AM 28.4 °F - 26.6 °F 93% 30.54 in 10.0 mi Calm Calm - N/A   Clear
1:15 AM 30.2 °F - 26.6 °F 86% 30.53 in 10.0 mi Calm Calm - N/A   Clear
1:35 AM 30.2 °F - 26.6 °F 86% 30.53 in 10.0 mi Calm Calm - N/A   Clear
1:55 AM 28.4 °F - 26.6 °F 93% 30.52 in 10.0 mi Calm Calm - N/A   Clear
2:15 AM 28.4 °F - 26.6 °F 93% 30.52 in 10.0 mi Calm Calm - N/A   Clear
2:35 AM 28.4 °F - 26.6 °F 93% 30.52 in 10.0 mi Calm Calm - N/A   Clear
2:55 AM 28.4 °F - 26.6 °F 93% 30.52 in 10.0 mi Calm Calm - N/A   Clear
3:15 AM 28.4 °F - 24.8 °F 86% 30.53 in 10.0 mi Calm Calm - N/A   Clear
3:35 AM 28.4 °F - 24.8 °F 86% 30.52 in 10.0 mi Calm Calm - N/A   Clear
3:55 AM 28.4 °F - 24.8 °F 86% 30.52 in 10.0 mi Calm Calm - N/A   Clear
4:15 AM 28.4 °F - 24.8 °F 86% 30.51 in 10.0 mi Calm Calm - N/A   Clear
4:35 AM 28.4 °F - 24.8 °F 86% 30.51 in 10.0 mi Calm Calm - N/A   Clear
4:55 AM 28.4 °F - 23.0 °F 80% 30.51 in 10.0 mi Calm Calm - N/A   Clear
5:15 AM 28.4 °F - 23.0 °F 80% 30.52 in 10.0 mi Calm Calm - N/A   Clear
5:35 AM 28.4 °F - 24.8 °F 86% 30.51 in 10.0 mi Calm Calm - N/A   Clear
5:55 AM 28.4 °F - 24.8 °F 86% 30.51 in 10.0 mi Calm Calm - N/A   Clear
6:15 AM 28.4 °F - 24.8 °F 86% 30.51 in 10.0 mi Calm Calm - N/A   Clear
6:35 AM 28.4 °F - 24.8 °F 86% 30.51 in 10.0 mi Calm Calm - N/A   Clear
6:55 AM 28.4 °F 20.4 °F 23.0 °F 80% 30.51 in 10.0 mi SSE 8.1 mph - N/A   Clear
7:15 AM 30.2 °F - 24.8 °F 80% 30.51 in 10.0 mi Calm Calm - N/A   Clear
7:35 AM 30.2 °F 24.3 °F 24.8 °F 80% 30.51 in 10.0 mi SE 5.8 mph - N/A   Clear
7:55 AM 30.2 °F 26.7 °F 23.0 °F 75% 30.51 in 10.0 mi ESE 3.5 mph - N/A   Clear
8:15 AM 30.2 °F - 23.0 °F 75% 30.51 in 10.0 mi Calm Calm - N/A   Clear
8:35 AM 30.2 °F - 23.0 °F 75% 30.51 in 10.0 mi Calm Calm - N/A   Clear
8:55 AM 30.2 °F - 23.0 °F 75% 30.51 in 10.0 mi Calm Calm - N/A   Clear
9:15 AM 30.2 °F - 24.8 °F 80% 30.51 in 10.0 mi Calm Calm - N/A   Clear
9:35 AM 32.0 °F - 23.0 °F 69% 30.51 in 10.0 mi Calm Calm - N/A   Clear
9:55 AM 32.0 °F - 23.0 °F 69% 30.51 in 10.0 mi Calm Calm - N/A   Clear
10:15 AM 33.8 °F - 24.8 °F 70% 30.51 in 10.0 mi Calm Calm - N/A   Clear
10:35 AM 33.8 °F - 26.6 °F 75% 30.51 in 10.0 mi Calm Calm - N/A   Clear
10:55 AM 37.4 °F - 26.6 °F 65% 30.50 in 10.0 mi Calm Calm - N/A   Clear
11:15 AM 41.0 °F - 26.6 °F 57% 30.50 in 10.0 mi Calm Calm - N/A   Clear
11:35 AM 41.0 °F - 26.6 °F 57% 30.49 in 10.0 mi Calm Calm - N/A   Clear
11:55 AM 44.6 °F - 24.8 °F 46% 30.48 in 10.0 mi Calm Calm - N/A   Clear
12:15 PM 46.4 °F - 21.2 °F 37% 30.47 in 10.0 mi Calm Calm - N/A   Clear
12:35 PM 51.8 °F - 15.8 °F 24% 30.45 in 10.0 mi East 11.5 mph 21.9 mph N/A   Clear
12:55 PM 51.8 °F - 21.2 °F 30% 30.45 in 10.0 mi ESE 9.2 mph - N/A   Clear
1:15 PM 53.6 °F - 17.6 °F 24% 30.44 in 10.0 mi ENE 17.3 mph 20.7 mph N/A   Clear
1:35 PM 53.6 °F - 17.6 °F 24% 30.44 in 10.0 mi NE 18.4 mph 24.2 mph N/A   Clear
1:55 PM 53.6 °F - 19.4 °F 26% 30.43 in 10.0 mi NE 16.1 mph 21.9 mph N/A   Clear
2:15 PM 53.6 °F - 17.6 °F 24% 30.43 in 10.0 mi NE 18.4 mph 23.0 mph N/A   Clear
2:35 PM 53.6 °F - 17.6 °F 24% 30.43 in 10.0 mi ENE 19.6 mph 25.3 mph N/A   Clear
2:55 PM 53.6 °F - 17.6 °F 24% 30.42 in 10.0 mi ENE 16.1 mph 24.2 mph N/A   Clear
3:15 PM 53.6 °F - 17.6 °F 24% 30.41 in 10.0 mi NE 16.1 mph - N/A   Clear
3:35 PM 53.6 °F - 17.6 °F 24% 30.40 in 10.0 mi NE 17.3 mph - N/A   Clear
3:55 PM 53.6 °F - 17.6 °F 24% 30.40 in 10.0 mi NE 16.1 mph 21.9 mph N/A   Clear
4:15 PM 53.6 °F - 17.6 °F 24% 30.40 in 10.0 mi NE 12.7 mph 19.6 mph N/A   Clear
4:35 PM 53.6 °F - 17.6 °F 24% 30.39 in 10.0 mi NE 17.3 mph 23.0 mph N/A   Clear
4:55 PM 51.8 °F - 17.6 °F 26% 30.39 in 10.0 mi NE 15.0 mph - N/A   Clear
5:15 PM 50.0 °F - 17.6 °F 28% 30.39 in 10.0 mi NE 10.4 mph - N/A   Clear
5:35 PM 50.0 °F - 17.6 °F 28% 30.38 in 10.0 mi NE 13.8 mph 23.0 mph N/A   Clear
5:55 PM 50.0 °F - 15.8 °F 26% 30.38 in 10.0 mi ENE 16.1 mph 25.3 mph N/A   Clear
6:15 PM 50.0 °F - 14.0 °F 24% 30.37 in 10.0 mi ENE 17.3 mph 25.3 mph N/A   Clear
6:35 PM 50.0 °F - 15.8 °F 26% 30.38 in 10.0 mi NE 13.8 mph 19.6 mph N/A   Clear
6:55 PM 48.2 °F - 15.8 °F 27% 30.38 in 10.0 mi NE 18.4 mph 23.0 mph N/A   Clear
7:15 PM 48.2 °F - 15.8 °F 27% 30.37 in 10.0 mi ENE 18.4 mph 25.3 mph N/A   Clear
7:35 PM 48.2 °F - 14.0 °F 25% 30.37 in 10.0 mi ENE 11.5 mph 21.9 mph N/A   Clear
7:55 PM 48.2 °F - 14.0 °F 25% 30.38 in 10.0 mi ENE 12.7 mph 19.6 mph N/A   Clear
8:15 PM 42.8 °F 38.6 °F 21.2 °F 42% 30.38 in 10.0 mi SSE 6.9 mph 17.3 mph N/A   Clear
8:35 PM 37.4 °F 32.1 °F 26.6 °F 65% 30.38 in 10.0 mi East 6.9 mph - N/A   Clear
8:55 PM 44.6 °F 39.2 °F 17.6 °F 34% 30.37 in 10.0 mi ENE 10.4 mph 16.1 mph N/A   Clear
9:15 PM 48.2 °F - 14.0 °F 25% 30.37 in 10.0 mi ENE 20.7 mph 26.5 mph N/A   Clear
9:35 PM 46.4 °F 39.8 °F 14.0 °F 27% 30.37 in 10.0 mi ENE 16.1 mph 24.2 mph N/A   Clear
9:55 PM 46.4 °F 40.1 °F 12.2 °F 25% 30.37 in 10.0 mi ENE 15.0 mph 21.9 mph N/A   Clear
10:15 PM 46.4 °F 40.1 °F 14.0 °F 27% 30.37 in 10.0 mi ENE 15.0 mph 25.3 mph N/A   Clear
10:35 PM 46.4 °F 39.8 °F 14.0 °F 27% 30.36 in 10.0 mi ENE 16.1 mph 23.0 mph N/A   Clear
10:55 PM 48.2 °F - 12.2 °F 24% 30.36 in 10.0 mi ENE 12.7 mph 23.0 mph N/A   Clear
11:15 PM 46.4 °F 40.4 °F 14.0 °F 27% 30.35 in 10.0 mi ENE 13.8 mph 23.0 mph N/A   Clear
11:35 PM 46.4 °F 40.4 °F 14.0 °F 27% 30.35 in 10.0 mi ENE 13.8 mph 23.0 mph N/A   Clear
11:55 PM 46.4 °F 40.4 °F 14.0 °F 27% 30.35 in 10.0 mi ENE 13.8 mph 18.4 mph N/A   Clear